Casa Grande, AZ

7:23 PM MST on December 08, 2019 (GMT -0700)
Casa Grande Municipal

Weather History for KCGZ - July, 2019

Change the Weather History Date:

Thursday, July 18, 2019

  Actual Average Record
Temperature  
Mean Temperature 93 °F -  
Max Temperature 106 °F 101 °F 109 °F (2000)
Min Temperature 80 °F 77 °F 71 °F (2012)
Cooling Degree Days 28    
Growing Degree Days 43 (Base 50)    
Moisture  
Dew Point 49 °F    
Average Humidity 25    
Maximum Humidity 45    
Minimum Humidity 8    
Precipitation  
Precipitation 0.00 in - - ()
Sea Level Pressure  
Sea Level Pressure 29.82 in    
Wind  
Wind Speed 5 mph (WSW)    
Max Wind Speed 14 mph    
Max Gust Speed 21 mph    
Visibility 10 miles    
Events      
Averages and records for this station are not official NWS values.
T = Trace of Precipitation, MM = Missing Value Source: NWS Daily Summary

Daily Weather History Graph

Daily Weather History Graph

Search for Another Location

Airport or City:

Astronomy

Jul. 18, 2019 Rise Set
Actual Time 5:31 AM MST 7:35 PM MST
Civil Twilight 5:03 AM MST 8:02 PM MST
Nautical Twilight 4:29 AM MST 8:36 PM MST
Astronomical Twilight 3:53 AM MST 9:13 PM MST
Moon 9:06 PM MST (7/18) 7:01 AM MST (7/18)
Length of Visible Light 14h 59m
Length of Day
14h 03m
Waning Gibbous, 97% of the Moon is Illuminated
Jul 18
Waning Gibbous
Jul 24
Last Quarter
Jul 31
New
Aug 7
First Quarter
Aug 15
Full

Hourly Weather History & Observations

Time (MST) Temp. Heat Index Dew Point Humidity Pressure Visibility Wind Dir Wind Speed Gust Speed Precip Events Conditions
12:56 AM 84.9 °F 84.2 °F 57.9 °F 40% 29.87 in 10.0 mi SW 3.5 mph - N/A   Clear
1:56 AM 84.9 °F 84.2 °F 57.9 °F 40% 29.86 in 10.0 mi WSW 3.5 mph - N/A   Clear
2:56 AM 84.9 °F 84.8 °F 60.1 °F 43% 29.86 in 10.0 mi South 5.8 mph - N/A   Clear
3:56 AM 82.9 °F 82.8 °F 59.0 °F 44% 29.87 in 10.0 mi WNW 5.8 mph - N/A   Clear
4:56 AM 82.0 °F 82.1 °F 59.0 °F 45% 29.88 in 10.0 mi Calm Calm - N/A   Clear
5:56 AM 80.1 °F 80.4 °F 57.0 °F 45% 29.89 in 10.0 mi Calm Calm - N/A   Clear
6:56 AM 84.9 °F 84.8 °F 60.1 °F 43% 29.90 in 10.0 mi Calm Calm - N/A   Clear
7:56 AM 89.1 °F 87.3 °F 55.9 °F 32% 29.91 in 10.0 mi Calm Calm - N/A   Clear
8:56 AM 93.0 °F 91.4 °F 55.9 °F 29% 29.91 in 10.0 mi SSE 3.5 mph - N/A   Clear
9:56 AM 95.0 °F 92.7 °F 54.0 °F 25% 29.89 in 10.0 mi Variable 3.5 mph - N/A   Clear
10:56 AM 97.0 °F 94.6 °F 54.0 °F 23% 29.88 in 10.0 mi SSW 3.5 mph - N/A   Clear
11:56 AM 100.0 °F - 48.9 °F 18% 29.86 in 10.0 mi Calm Calm - N/A   Clear
12:56 PM 100.9 °F 99.1 °F 54.0 °F 21% 29.84 in 10.0 mi West 8.1 mph - N/A   Clear
1:56 PM 102.9 °F - 43.0 °F 13% 29.81 in 10.0 mi West 12.7 mph 17.3 mph N/A   Clear
2:56 PM 105.1 °F - 39.9 °F 11% 29.77 in 10.0 mi West 13.8 mph 17.3 mph N/A   Clear
3:56 PM 106.0 °F - 37.9 °F 10% 29.75 in 10.0 mi West 12.7 mph 20.7 mph N/A   Clear
4:56 PM 106.0 °F - 34.0 °F 8% 29.73 in 10.0 mi West 12.7 mph 19.6 mph N/A   Clear
5:56 PM 105.1 °F - 37.0 °F 10% 29.73 in 10.0 mi West 12.7 mph - N/A   Clear
6:56 PM 102.9 °F - 41.0 °F 12% 29.73 in 10.0 mi West 12.7 mph - N/A   Clear
7:56 PM 100.0 °F - 41.0 °F 13% 29.73 in 10.0 mi West 8.1 mph - N/A   Clear
8:56 PM 97.0 °F - 45.0 °F 17% 29.74 in 10.0 mi WNW 9.2 mph - N/A   Clear
9:56 PM 97.0 °F - 44.1 °F 16% 29.75 in 10.0 mi West 6.9 mph - N/A   Clear
10:56 PM 96.1 °F - 44.1 °F 17% 29.77 in 10.0 mi SW 5.8 mph - N/A   Clear
11:56 PM 93.0 °F - 46.9 °F 20% 29.76 in 10.0 mi Calm Calm - N/A   Clear